Starlink 34297

operational
NORAD ID: 64261 Int'l Des: 2025-120 Owner: SPXS Country: US Constellation: starlink
LEOCIRCULAR

Über Starlink 34297

Beschreibung wird geladen...

Live-Position

3D-Globus wird geladen...

Nächste Überflüge

Höhenverlauf

Altitude vs Time

uPlot chart will show altitude changes over time

Zweizeiliger Elementsatz

1 64261U 25120F 26095.12335763 .00039387 00000-0 13371-2 0 9998
2 64261 53.1607 353.8850 0001285 62.5878 297.5254 15.30147416 47868
Epoch: 5. Apr. 2026 • Age: 18 hours

Aktueller Status

Höhe 480.0 km
Geschwindigkeit 7.63 km/s
Subsatellitenpunkt 49.30°N, 91.35°W
Startdatum 4. Juni 2025
Alter 0.8 years
Typ internet

Technische Details

Klassifizierung Payload
Masse 575.00 kg
Trockenmasse 530.00 kg
Gesamtmasse 575.00 kg
Länge 0.30 m
Durchmesser 4.10 m
Spannweite 29.00 m
Form Box + pan
Hersteller SPXS
Bus-Typ Starlink V2MO
Phasenstatus In Orbit
Besitzer/Staat SPXS/US

Große Konstellationen

Loading constellations...